Powrót do katalogu

SL-14 DEB *

AktywnyPO
NORAD 47086·DEBRIS·🇷🇺 Russia

Wystrzelony Aug 15, 1991 z Plesetsk Cosmodrome

Loading…

Następne Przeloty (najbliższe 24 godziny)

TLE

ŚwieżeSource: Space-Track

Epoka: Sep 13, 2026, 10:54 UTC

1 47086U 91056DL  26256.45425013  .00000686  00000-0  29476-3 0  9992
2 47086  82.5534 162.3284 0011076  78.8740 281.3687 14.23418563302691

Śledź SL-14 DEB * w czasie rzeczywistym z AllMySat

Download on the App Store